TimeEST,TemperatureF,Dew PointF,Humidity,Sea Level PressureIn,VisibilityMPH,Wind Direction,Wind SpeedMPH,Gust SpeedMPH,PrecipitationIn,Events,Conditions,WindDirDegrees,DateUTC
12:54 AM,34.0,33.1,96,29.49,-9999.0,North,-9999.0,-,0.02,,Unknown,0,2012-12-19 05:54:00
1:54 AM,33.1,33.1,100,29.51,-9999.0,North,-9999.0,-,0.06,,Unknown,0,2012-12-19 06:54:00
2:54 AM,33.1,33.1,100,29.53,-9999.0,North,-9999.0,-,0.01,,Unknown,0,2012-12-19 07:54:00
3:54 AM,33.1,32.0,96,29.55,-9999.0,North,-9999.0,-,0.02,,Unknown,0,2012-12-19 08:54:00
4:54 AM,32.0,32.0,100,29.56,-9999.0,North,-9999.0,-,0.02,,Unknown,0,2012-12-19 09:54:00
5:54 AM,32.0,32.0,100,29.59,-9999.0,North,-9999.0,-,0.01,,Unknown,0,2012-12-19 10:54:00
6:54 AM,32.0,32.0,100,29.61,-9999.0,North,-9999.0,-,N/A,,Unknown,0,2012-12-19 11:54:00
7:54 AM,33.1,32.0,96,29.64,-9999.0,North,-9999.0,-,N/A,,Unknown,0,2012-12-19 12:54:00
8:54 AM,-9999,-9999,N/A,-9999,-9999.0,North,-9999.0,-,N/A,,Unknown,0,2012-12-19 13:54:00
9:54 AM,34.0,32.0,92,29.66,-9999.0,North,-9999.0,-,N/A,,Unknown,0,2012-12-19 14:54:00
10:54 AM,36.0,32.0,86,29.66,-9999.0,North,-9999.0,-,N/A,,Unknown,0,2012-12-19 15:54:00
11:54 AM,37.0,30.0,76,29.68,-9999.0,North,-9999.0,-,N/A,,Unknown,0,2012-12-19 16:54:00
12:54 PM,36.0,30.9,82,29.72,-9999.0,North,-9999.0,-,N/A,,Unknown,0,2012-12-19 17:54:00
1:54 PM,35.1,30.9,85,29.75,-9999.0,North,-9999.0,-,N/A,,Unknown,0,2012-12-19 18:54:00
2:54 PM,36.0,30.0,79,29.79,-9999.0,North,-9999.0,-,N/A,,Unknown,0,2012-12-19 19:54:00
3:54 PM,36.0,30.0,79,29.82,-9999.0,North,-9999.0,-,N/A,,Unknown,0,2012-12-19 20:54:00
4:54 PM,35.1,28.9,78,29.87,-9999.0,North,-9999.0,-,N/A,,Unknown,0,2012-12-19 21:54:00
5:54 PM,35.1,28.9,78,29.90,-9999.0,North,-9999.0,-,N/A,,Unknown,0,2012-12-19 22:54:00
6:54 PM,35.1,28.0,76,29.93,-9999.0,North,-9999.0,-,N/A,,Unknown,0,2012-12-19 23:54:00
7:54 PM,35.1,28.0,76,29.96,-9999.0,North,-9999.0,-,N/A,,Unknown,0,2012-12-20 00:54:00
8:54 PM,34.0,28.9,82,29.98,-9999.0,North,-9999.0,-,N/A,,Unknown,0,2012-12-20 01:54:00
9:54 PM,34.0,28.9,82,30.02,-9999.0,North,-9999.0,-,N/A,,Unknown,0,2012-12-20 02:54:00
10:54 PM,34.0,28.9,82,30.04,-9999.0,North,-9999.0,-,N/A,,Unknown,0,2012-12-20 03:54:00
11:54 PM,34.0,28.0,79,30.05,-9999.0,North,-9999.0,-,N/A,,Unknown,0,2012-12-20 04:54:00